EW4536 Weather Reports


Display with metric or nautical units.
time (UTC)temp
F
wind
direction
speed
MPH
gust
MPH
rain 1hr
in
rain 24hr
in
rain mn
in
humidity
%
barometer
mb
20260903091526 75 98 0.0 0.0 0.00 0.01 0.00 96 1014.1
20260903090111 75 98 0.0 0.0 0.00 0.01 0.00 96 1014.2
20260903084538 75 98 0.0 0.0 0.00 0.01 0.00 96 1014.2
20260903083010 74 98 0.0 0.0 0.00 0.01 0.00 96 1014.5
20260903081547 74 98 0.0 0.0 0.00 0.01 0.00 96 1014.4
20260903080011 74 98 0.0 0.0 0.00 0.01 0.00 96 1014.4
20260903074541 74 98 0.0 0.0 0.00 0.01 0.00 95 1014.4
20260903073008 74 98 0.0 0.0 0.00 0.01 0.00 95 1014.5
20260903071548 74 98 0.0 0.0 0.00 0.01 0.00 95 1014.6
20260903070104 74 98 0.0 0.0 0.00 0.01 0.00 95 1014.8
20260903064530 74 98 0.0 0.0 0.00 0.01 0.00 95 1014.7
20260903061524 75 98 0.0 0.0 0.00 0.01 0.00 95 1015.1
20260903060146 75 98 0.0 0.0 0.00 0.01 0.00 95 1015.3
20260903054529 75 98 0.0 0.0 0.00 0.01 0.00 95 1015.5
20260903053103 75 98 0.0 0.0 0.00 0.01 0.00 94 1015.6
20260903051537 75 98 0.0 0.0 0.00 0.01 0.00 94 1015.6
20260903050008 76 98 0.0 0.0 0.00 0.01 0.00 94 1015.5
20260903044551 76 98 0.0 0.0 0.00 0.01 0.00 94 1015.5
20260903043022 76 98 0.0 0.0 0.00 0.01 0.00 94 1015.4
20260903041546 75 98 0.0 0.0 0.00 0.01 0.00 94 1015.4
20260903040015 75 98 0.0 0.0 0.00 0.01 0.00 94 1015.5
20260903034554 75 98 0.0 0.0 0.00 0.01 0.01 93 1015.6
20260903033032 75 98 0.0 0.0 0.00 0.01 0.01 93 1015.5
20260903031611 76 98 0.0 0.0 0.00 0.01 0.01 93 1015.7
20260903030036 76 98 0.0 1.0 0.00 0.01 0.01 92 1015.8
20260903024609 76 98 0.0 0.0 0.00 0.01 0.01 92 1016.0
20260903023045 76 98 0.0 2.0 0.00 0.01 0.01 91 1015.9
20260903021608 77 98 0.0 0.0 0.00 0.01 0.01 90 1015.9
20260903020028 77 98 0.0 0.0 0.00 0.01 0.01 90 1016.0
20260903014610 77 98 0.0 2.0 0.00 0.01 0.01 89 1015.9
20260903013046 77 98 0.0 2.0 0.00 0.01 0.01 89 1015.8
20260903011600 78 98 0.0 2.0 0.00 0.01 0.01 89 1015.7
20260903010040 78 98 0.0 2.0 0.00 0.01 0.01 88 1015.8
20260903004601 78 117 1.0 4.0 0.00 0.01 0.01 88 1015.5
20260903003022 79 108 2.0 4.0 0.00 0.01 0.01 87 1015.4
20260903001614 79 82 0.0 4.0 0.00 0.01 0.01 87 1015.6
20260903000027 79 90 1.0 3.0 0.00 0.01 0.01 90 1015.4
20260902234621 79 136 1.0 2.0 0.00 0.01 0.01 90 1015.3
20260902233014 79 115 0.0 2.0 0.00 0.01 0.01 89 1015.3
20260902231544 79 115 0.0 3.0 0.00 0.01 0.01 89 1015.4
20260902230006 79 114 0.0 4.0 0.01 0.01 0.01 89 1015.4
20260902224545 79 101 4.0 8.0 0.01 0.01 0.01 89 1015.2
20260902223011 79 103 2.0 8.0 0.01 0.01 0.01 89 1015.1
20260902221546 80 107 3.0 11.0 0.01 0.01 0.01 86 1015.3
20260902220025 84 60 1.0 10.0 0.00 0.00 0.00 77 1015.1
20260902214547 85 82 2.0 9.0 0.00 0.00 0.00 72 1015.0
20260902213011 88 76 3.0 15.0 0.00 0.00 0.00 70 1014.9
20260902211556 88 83 3.0 9.0 0.00 0.00 0.00 70 1014.8
20260902210023 89 101 3.0 10.0 0.00 0.00 0.00 68 1014.5
20260902204556 89 98 3.0 13.0 0.00 0.00 0.00 68 1014.6
20260902203021 89 107 3.0 10.0 0.00 0.00 0.00 68 1014.6
20260902201602 90 106 2.0 10.0 0.00 0.00 0.00 69 1014.7
20260902200022 88 98 2.0 9.0 0.00 0.00 0.00 70 1014.8
20260902194558 88 105 3.0 9.0 0.00 0.00 0.00 69 1014.8
20260902193027 88 360 1.0 8.0 0.00 0.00 0.00 76 1014.8
20260902191606 91 51 1.0 15.0 0.00 0.00 0.00 66 1015.0
20260902190028 90 72 2.0 7.0 0.00 0.00 0.00 67 1015.1
20260902184605 90 111 1.0 8.0 0.00 0.00 0.00 69 1015.4
20260902183018 89 105 2.0 6.0 0.00 0.00 0.00 68 1015.7
20260902181601 87 83 1.0 4.0 0.00 0.00 0.00 73 1015.8
20260902180022 87 62 2.0 6.0 0.00 0.00 0.00 74 1016.0
20260902174605 87 38 2.0 10.0 0.00 0.00 0.00 73 1016.1
20260902173035 88 34 2.0 9.0 0.00 0.00 0.00 72 1016.0
20260902171505 88 53 2.0 6.0 0.00 0.00 0.00 71 1016.1
20260902170039 89 40 2.0 6.0 0.00 0.00 0.00 69 1016.4
20260902164510 88 51 0.0 7.0 0.00 0.00 0.00 73 1016.6
20260902163040 86 53 1.0 6.0 0.00 0.00 0.00 77 1016.8
20260902161514 88 105 3.0 6.0 0.00 0.00 0.00 74 1017.0
20260902160049 87 28 2.0 4.0 0.00 0.00 0.00 76 1017.2
20260902154514 86 38 2.0 6.0 0.00 0.00 0.00 76 1017.4
20260902153043 86 47 2.0 5.0 0.00 0.00 0.00 76 1017.4
20260902151510 85 38 1.0 6.0 0.00 0.00 0.00 78 1017.6
20260902150046 85 91 3.0 9.0 0.00 0.00 0.00 78 1017.5
20260902144512 85 67 0.0 4.0 0.00 0.00 0.00 81 1017.7
20260902143039 82 71 1.0 6.0 0.00 0.00 0.00 88 1017.5
20260902141508 82 41 1.0 3.0 0.00 0.00 0.00 92 1017.5
20260902140043 80 34 1.0 3.0 0.00 0.00 0.00 95 1017.5
20260902134608 79 62 0.0 2.0 0.00 0.00 0.00 96 1017.5
20260902133033 78 68 0.0 3.0 0.00 0.00 0.00 97 1017.4
20260902131601 77 66 1.0 2.0 0.00 0.00 0.00 97 1017.5
20260902130025 76 77 1.0 3.0 0.00 0.00 0.00 97 1017.5
20260902124610 76 78 0.0 2.0 0.00 0.00 0.00 97 1017.5
20260902123024 76 80 0.0 3.0 0.00 0.00 0.00 97 1017.4
20260902121503 76 90 0.0 2.0 0.00 0.00 0.00 97 1017.3
20260902120036 75 96 0.0 1.0 0.00 0.00 0.00 97 1017.2
20260902114620 75 98 0.0 2.0 0.00 0.00 0.00 97 1017.2
20260902113042 75 98 0.0 2.0 0.00 0.00 0.00 97 1017.0
20260902111502 75 98 0.0 2.0 0.00 0.00 0.00 97 1016.8
20260902110037 75 98 0.0 2.0 0.00 0.00 0.00 97 1016.7
20260902104551 75 98 0.0 2.0 0.00 0.00 0.00 97 1016.4
20260902103013 75 98 0.0 2.0 0.00 0.00 0.00 97 1016.5
20260902101551 75 102 0.0 0.0 0.00 0.00 0.00 97 1016.4
20260902100016 75 103 0.0 0.0 0.00 0.00 0.00 97 1016.4
20260902094551 75 103 0.0 1.0 0.00 0.00 0.00 96 1016.1
20260902093016 75 121 0.0 0.0 0.00 0.00 0.00 96 1016.2